CW7324 Weather Reports


Display with metric or nautical units.
time (UTC)temp
F
wind
direction
speed
MPH
gust
MPH
rain 1hr
in
rain 24hr
in
rain mn
in
humidity
%
barometer
mb
20260504182613 66 261 2.0 11.0 0.00 0.00 0.00 45 1005.2
20260504182031 66 227 3.0 10.0 0.00 0.00 0.00 44 1005.0
20260504181529 65 233 3.0 11.0 0.00 0.00 0.00 38 1005.2
20260504181054 65 48 3.0 9.0 0.00 0.00 0.00 47 1005.3
20260504180535 65 175 3.0 9.0 0.00 0.00 0.00 44 1005.3
20260504180048 64 275 3.0 9.0 0.00 0.00 0.00 46 1005.3
20260504175530 64 319 3.0 9.0 0.00 0.00 0.00 43 1005.3
20260504175034 64 269 2.0 12.0 0.00 0.00 0.00 43 1005.3
20260504174530 64 17 3.0 12.0 0.00 0.00 0.00 46 1005.3
20260504174053 64 256 2.0 9.0 0.00 0.00 0.00 40 1005.3
20260504173528 64 154 4.0 11.0 0.00 0.00 0.00 41 1005.5
20260504173053 64 183 3.0 8.0 0.00 0.00 0.00 43 1005.3
20260504172551 64 160 3.0 10.0 0.00 0.00 0.00 43 1005.5
20260504172038 63 342 2.0 10.0 0.00 0.00 0.00 44 1005.5
20260504171552 63 264 4.0 10.0 0.00 0.00 0.00 42 1005.5
20260504171102 64 291 3.0 7.0 0.00 0.00 0.00 38 1005.7
20260504170558 64 121 3.0 7.0 0.00 0.00 0.00 44 1005.5
20260504151034 63 252 4.0 14.0 0.00 0.00 0.00 42 1006.3
20260504150544 63 35 6.0 17.0 0.00 0.00 0.00 41 1006.2
20260504150104 63 267 6.0 17.0 0.00 0.00 0.00 43 1006.2
20260504141036 59 98 5.0 13.0 0.00 0.00 0.00 43 1006.7
20260504140526 59 186 6.0 10.0 0.00 0.00 0.00 43 1006.9
20260504130526 56 169 2.0 8.0 0.00 0.00 0.00 53 1007.6
20260504110530 42 192 0.0 3.0 0.00 0.00 0.00 80 1008.4
20260504100551 39 113 0.0 0.0 0.00 0.00 0.00 84 1008.2
20260504081524 39 134 0.0 3.0 0.00 0.01 0.00 77 1008.2
20260504081032 39 94 2.0 3.0 0.00 0.01 0.00 76 1008.1
20260504080549 39 111 2.0 4.0 0.00 0.01 0.00 77 1008.2
20260504050524 35 360 0.0 0.0 0.00 0.02 0.00 83 1008.3
20260504045554 35 360 0.0 0.0 0.00 0.02 0.02 82 1008.2
20260504045033 35 360 0.0 0.0 0.00 0.02 0.02 82 1008.3
20260504044538 36 360 0.0 0.0 0.00 0.02 0.02 82 1008.3
20260504044054 35 360 0.0 0.0 0.00 0.02 0.02 82 1008.3
20260504043552 34 360 0.0 1.0 0.00 0.02 0.02 82 1008.3
20260504043024 34 360 0.0 2.0 0.00 0.02 0.02 82 1008.3
20260504042547 34 360 0.0 2.0 0.00 0.02 0.02 82 1008.4
20260504042027 34 360 0.0 5.0 0.00 0.02 0.02 82 1008.3
20260504041547 35 360 1.0 5.0 0.00 0.02 0.02 81 1008.3
20260504041032 36 360 1.0 3.0 0.00 0.02 0.02 79 1008.3
20260504040530 36 360 1.0 3.0 0.00 0.02 0.02 79 1008.2
20260504040037 36 360 0.0 0.0 0.00 0.02 0.02 78 1008.2
20260504035530 36 360 0.0 0.0 0.00 0.02 0.02 78 1008.2
20260504035041 36 360 0.0 0.0 0.00 0.02 0.02 81 1008.1
20260504034548 36 360 0.0 0.0 0.00 0.02 0.02 81 1008.1
20260504034028 34 360 0.0 2.0 0.00 0.02 0.02 83 1008.1
20260504033555 34 360 1.0 2.0 0.00 0.02 0.02 83 1008.2
20260504033029 34 360 0.0 0.0 0.00 0.02 0.02 83 1008.2
20260504032523 35 360 0.0 0.0 0.00 0.02 0.02 81 1008.1
20260504032035 36 360 0.0 0.0 0.00 0.02 0.02 81 1008.1
20260504031536 36 360 0.0 0.0 0.00 0.02 0.02 79 1008.1
20260504031025 37 360 0.0 1.0 0.00 0.02 0.02 80 1008.0
20260504030539 36 360 0.0 3.0 0.00 0.02 0.02 81 1007.9
20260504030034 37 360 1.0 3.0 0.00 0.02 0.02 80 1008.0
20260504025544 36 360 0.0 0.0 0.00 0.06 0.02 82 1008.0
20260504025022 36 360 0.0 0.0 0.00 0.06 0.02 79 1008.0
20260504024541 37 360 0.0 0.0 0.00 0.06 0.02 80 1008.1
20260504024044 37 360 0.0 0.0 0.00 0.06 0.02 80 1008.1
20260504023531 37 360 0.0 2.0 0.00 0.06 0.02 77 1008.2
20260504023040 37 172 0.0 2.0 0.00 0.06 0.02 76 1008.2
20260504022533 37 178 0.0 2.0 0.00 0.06 0.02 81 1008.2
20260504022032 37 178 1.0 2.0 0.00 0.06 0.02 78 1008.2
20260504021554 37 168 1.0 3.0 0.00 0.06 0.02 77 1008.2
20260504021037 38 167 1.0 3.0 0.00 0.06 0.02 79 1008.2
20260504020538 38 173 1.0 3.0 0.00 0.06 0.02 77 1008.1
20260504020058 38 171 2.0 3.0 0.00 0.06 0.02 80 1008.2
20260504015547 38 181 0.0 0.0 0.00 0.06 0.02 79 1008.1
20260504015052 38 181 0.0 0.0 0.00 0.06 0.02 79 1008.1
20260504014552 39 181 0.0 0.0 0.00 0.06 0.02 79 1008.1
20260504014032 39 181 0.0 0.0 0.00 0.06 0.02 73 1008.0
20260504013555 39 181 0.0 0.0 0.00 0.06 0.02 78 1008.1
20260504013054 39 181 0.0 0.0 0.00 0.06 0.02 78 1008.1
20260504012532 39 181 0.0 0.0 0.00 0.06 0.02 74 1008.0
20260504012032 39 181 0.0 0.0 0.00 0.06 0.02 74 1007.9
20260504011528 40 181 0.0 0.0 0.00 0.06 0.02 75 1007.9
20260504011023 40 181 0.0 0.0 0.00 0.06 0.02 71 1007.8
20260504010034 40 171 0.0 2.0 0.00 0.06 0.02 77 1007.7
20260504005532 40 215 1.0 2.0 0.00 0.06 0.02 73 1007.8
20260504005044 40 215 1.0 3.0 0.00 0.06 0.02 72 1007.8
20260504004604 40 215 1.0 3.0 0.00 0.06 0.02 74 1007.6
20260504004033 41 192 1.0 5.0 0.00 0.06 0.02 74 1007.6
20260504003550 41 219 2.0 5.0 0.00 0.06 0.02 71 1007.6
20260504003036 41 278 1.0 3.0 0.00 0.06 0.02 70 1007.4
20260504002523 41 205 1.0 5.0 0.00 0.06 0.02 70 1007.4
20260504002029 42 267 1.0 5.0 0.00 0.06 0.02 69 1007.4
20260504001525 42 198 1.0 4.0 0.00 0.06 0.02 66 1007.3
20260504001039 43 325 1.0 4.0 0.00 0.06 0.02 65 1007.2
20260504000525 43 178 1.0 5.0 0.00 0.06 0.02 67 1007.1
20260504000038 42 178 2.0 5.0 0.00 0.06 0.02 70 1007.1
20260503235527 43 57 1.0 8.0 0.00 0.06 0.02 64 1007.1
20260503235032 43 301 2.0 8.0 0.00 0.06 0.02 66 1006.9
20260503234530 44 300 2.0 8.0 0.00 0.06 0.02 61 1006.9
20260503234024 44 194 1.0 11.0 0.00 0.06 0.02 65 1006.9
20260503233532 44 286 3.0 11.0 0.00 0.06 0.02 56 1006.8
20260503233041 44 238 2.0 6.0 0.00 0.06 0.02 60 1006.8
20260503232550 45 323 1.0 7.0 0.00 0.06 0.02 57 1006.7
20260503232034 45 346 2.0 6.0 0.00 0.06 0.02 63 1006.7
20260503231533 45 360 2.0 6.0 0.00 0.06 0.02 62 1006.8
20260503231044 47 355 3.0 9.0 0.00 0.06 0.02 53 1006.8
20260503230527 46 287 4.0 15.0 0.00 0.06 0.02 55 1006.8
20260503230041 46 227 4.0 12.0 0.00 0.06 0.02 55 1006.7
20260503225526 47 328 2.0 14.0 0.00 0.08 0.02 53 1006.7
20260503225041 48 311 5.0 14.0 0.00 0.08 0.02 47 1006.6
20260503224546 47 316 3.0 12.0 0.00 0.08 0.02 51 1006.6
20260503224033 47 271 5.0 12.0 0.00 0.08 0.02 55 1006.6
20260503223534 47 250 4.0 11.0 0.00 0.08 0.02 56 1006.5
20260503223041 47 276 4.0 12.0 0.00 0.08 0.02 56 1006.4
20260503222540 48 331 3.0 12.0 0.00 0.08 0.02 57 1006.4
20260503222059 48 296 4.0 12.0 0.00 0.08 0.02 50 1006.4
20260503221522 48 311 5.0 11.0 0.00 0.08 0.02 48 1006.4
20260503221032 48 290 3.0 15.0 0.00 0.08 0.02 50 1006.3
20260503220534 48 326 5.0 15.0 0.00 0.08 0.02 47 1006.3
20260503220033 48 296 5.0 16.0 0.00 0.08 0.02 46 1006.2
20260503215529 47 294 7.0 20.0 0.00 0.20 0.02 47 1006.2
20260503215033 48 13 4.0 15.0 0.00 0.20 0.02 48 1006.1
20260503214531 48 17 4.0 12.0 0.00 0.20 0.02 50 1006.1
20260503214035 48 296 4.0 17.0 0.00 0.20 0.02 47 1006.1
20260503213541 48 336 7.0 18.0 0.00 0.20 0.02 51 1006.1
20260503213033 48 61 7.0 18.0 0.00 0.20 0.02 45 1006.0
20260503212608 48 5 5.0 12.0 0.00 0.20 0.02 51 1006.0
20260503212038 48 348 2.0 18.0 0.00 0.20 0.02 47 1005.9
20260503211533 48 355 5.0 18.0 0.00 0.20 0.02 48 1006.0
20260503211053 48 196 4.0 15.0 0.00 0.20 0.02 49 1006.1
20260503210553 48 17 6.0 13.0 0.00 0.20 0.02 47 1005.9
20260503210057 48 319 4.0 13.0 0.00 0.20 0.02 56 1005.9
20260503205540 49 231 3.0 16.0 0.00 0.20 0.02 49 1005.8
20260503205044 49 360 6.0 16.0 0.00 0.20 0.02 43 1005.7
20260503204525 48 216 3.0 24.0 0.00 0.20 0.02 50 1005.7
20260503204100 48 344 8.0 24.0 0.00 0.20 0.02 44 1005.6
20260503203546 49 337 7.0 19.0 0.00 0.20 0.02 45 1005.6
20260503203023 49 333 3.0 10.0 0.00 0.20 0.02 51 1005.6
20260503202527 49 216 3.0 16.0 0.00 0.20 0.02 46 1005.5
20260503202027 48 251 4.0 20.0 0.00 0.20 0.02 49 1005.5
20260503201525 49 348 5.0 20.0 0.00 0.20 0.02 51 1005.5
20260503201032 50 347 6.0 15.0 0.00 0.20 0.02 44 1005.5
20260503200555 50 263 7.0 20.0 0.00 0.20 0.02 46 1005.5
20260503200031 48 187 3.0 20.0 0.00 0.20 0.02 51 1005.6
20260503195536 48 19 4.0 19.0 0.00 0.22 0.02 52 1005.6
20260503195040 48 251 4.0 19.0 0.00 0.22 0.02 54 1005.7
20260503194549 48 303 6.0 16.0 0.00 0.22 0.02 48 1005.6
20260503194041 49 355 5.0 16.0 0.00 0.22 0.02 45 1005.5
20260503193523 49 360 4.0 16.0 0.00 0.22 0.02 50 1005.5
20260503193038 48 306 4.0 16.0 0.00 0.22 0.02 61 1005.5
20260503192531 48 306 4.0 9.0 0.00 0.22 0.02 50 1005.5
20260503192059 48 29 4.0 10.0 0.00 0.22 0.02 59 1005.5
20260503191615 48 61 4.0 17.0 0.00 0.22 0.02 52 1005.5
20260503191032 48 327 7.0 18.0 0.00 0.22 0.02 46 1005.6
20260503190540 48 271 6.0 18.0 0.00 0.22 0.02 53 1005.6
20260503190031 48 329 5.0 14.0 0.00 0.22 0.02 52 1005.6
20260503185553 48 277 5.0 15.0 0.00 0.22 0.02 52 1005.6
20260503185039 49 263 4.0 15.0 0.00 0.22 0.02 56 1005.5
20260503184531 51 336 5.0 10.0 0.00 0.22 0.02 48 1005.5
20260503184031 52 277 3.0 18.0 0.00 0.22 0.02 56 1005.4
20260503183527 49 278 5.0 18.0 0.00 0.22 0.02 48 1005.5
20260503183047 49 345 6.0 12.0 0.00 0.22 0.02 50 1005.4